Time,TemperatureF,DewpointF,PressureIn,WindDirection,WindDirectionDegrees,WindSpeedMPH,WindSpeedGustMPH,Humidity,HourlyPrecipIn,Conditions,Clouds,dailyrainin,SoftwareType,DateUTC
2013-04-15 00:00:00,73.0,53.3,29.98,North,0,9.2,9.2,50,0.00,OVC,,0.00,WeatherDisplay:10.37,2013-04-15 04:00:00,
2013-04-15 00:01:00,73.0,53.3,29.98,North,353,9.2,9.2,50,0.00,OVC,,0.00,WeatherDisplay:10.37,2013-04-15 04:01:00,
2013-04-15 00:06:00,73.0,53.3,29.98,NNE,16,6.9,6.9,50,0.00,OVC,,0.00,WeatherDisplay:10.37,2013-04-15 04:06:00,
2013-04-15 00:11:00,73.0,53.3,29.98,North,349,8.1,8.1,50,0.00,OVC,,0.00,WeatherDisplay:10.37,2013-04-15 04:11:00,
2013-04-15 00:16:00,72.9,53.1,29.98,North,353,9.2,9.2,50,0.00,OVC,,0.00,WeatherDisplay:10.37,2013-04-15 04:16:00,
2013-04-15 00:21:00,72.7,53.0,29.98,NNE,33,4.6,4.6,50,0.00,OVC,,0.00,WeatherDisplay:10.37,2013-04-15 04:21:00,
2013-04-15 00:31:00,72.5,53.3,29.98,North,0,3.6,3.6,51,0.00,OVC,,0.00,WeatherDisplay:10.37,2013-04-15 04:31:00,
2013-04-15 00:36:00,72.5,53.3,29.98,NNW,343,4.0,4.0,51,0.00,OVC,,0.00,WeatherDisplay:10.37,2013-04-15 04:36:00,
2013-04-15 00:46:00,72.3,53.7,29.98,North,11,8.1,8.1,52,0.00,OVC,,0.00,WeatherDisplay:10.37,2013-04-15 04:46:00,
2013-04-15 00:51:00,72.3,53.7,29.98,North,353,5.8,5.8,52,0.00,OVC,,0.00,WeatherDisplay:10.37,2013-04-15 04:51:00,
2013-04-15 01:00:00,72.1,54.1,29.98,NNE,21,3.4,3.6,53,0.00,OVC,,0.00,WeatherDisplay:10.37,2013-04-15 05:00:00,
2013-04-15 01:01:00,72.0,53.9,29.98,North,357,3.4,0.0,53,0.00,SCT,,0.00,WeatherDisplay:10.37,2013-04-15 05:01:00,
2013-04-15 01:05:00,72.0,53.9,29.98,NNW,341,4.0,4.0,53,0.00,SCT,,0.00,WeatherDisplay:10.37,2013-04-15 05:05:00,
2013-04-15 01:10:00,72.0,53.9,29.98,North,353,0.0,0.0,53,0.00,SCT,,0.00,WeatherDisplay:10.37,2013-04-15 05:10:00,
2013-04-15 01:16:00,72.0,54.4,29.98,North,357,0.0,0.0,54,0.00,SCT,,0.00,WeatherDisplay:10.37,2013-04-15 05:16:00,
2013-04-15 01:21:00,71.8,54.2,29.98,North,0,0.0,0.0,54,0.00,SCT,,0.00,WeatherDisplay:10.37,2013-04-15 05:21:00,
2013-04-15 01:31:00,71.6,54.1,29.98,North,0,0.0,0.0,54,0.00,SCT,,0.00,WeatherDisplay:10.37,2013-04-15 05:31:00,
2013-04-15 01:36:00,71.6,54.6,29.98,North,0,0.0,0.0,55,0.00,SCT,,0.00,WeatherDisplay:10.37,2013-04-15 05:36:00,
2013-04-15 01:46:00,71.4,54.9,29.95,North,0,0.0,0.0,56,0.00,SCT,,0.00,WeatherDisplay:10.37,2013-04-15 05:46:00,
2013-04-15 01:51:00,71.2,55.7,29.95,WNW,291,2.3,0.0,58,0.00,SCT,,0.00,WeatherDisplay:10.37,2013-04-15 05:51:00,
2013-04-15 02:00:00,71.1,56.0,29.98,WNW,291,0.0,0.0,59,0.00,SCT,,0.00,WeatherDisplay:10.37,2013-04-15 06:00:00,
2013-04-15 02:01:00,71.1,56.5,29.98,WNW,291,0.0,0.0,60,0.00,OVC,,0.00,WeatherDisplay:10.37,2013-04-15 06:01:00,
2013-04-15 02:05:00,71.2,56.2,29.98,WNW,291,0.0,0.0,59,0.00,OVC,,0.00,WeatherDisplay:10.37,2013-04-15 06:05:00,
2013-04-15 02:10:00,71.1,56.5,29.98,WNW,291,0.0,0.0,60,0.00,OVC,,0.00,WeatherDisplay:10.37,2013-04-15 06:10:00,
2013-04-15 02:16:00,70.9,56.8,29.95,WNW,291,0.0,0.0,61,0.00,OVC,,0.00,WeatherDisplay:10.37,2013-04-15 06:16:00,
2013-04-15 02:21:00,70.7,57.0,29.95,WNW,291,0.0,0.0,62,0.00,OVC,,0.00,WeatherDisplay:10.37,2013-04-15 06:21:00,
2013-04-15 02:31:00,70.2,57.4,29.95,WNW,291,0.0,0.0,64,0.00,OVC,,0.00,WeatherDisplay:10.37,2013-04-15 06:31:00,
2013-04-15 02:36:00,70.0,57.7,29.95,WNW,291,0.0,0.0,65,0.00,OVC,,0.00,WeatherDisplay:10.37,2013-04-15 06:36:00,
2013-04-15 02:46:00,69.6,58.2,29.95,WNW,291,0.0,0.0,67,0.00,OVC,,0.00,WeatherDisplay:10.37,2013-04-15 06:46:00,
2013-04-15 02:51:00,69.6,58.6,29.95,WNW,291,0.0,0.0,68,0.00,OVC,,0.00,WeatherDisplay:10.37,2013-04-15 06:51:00,
2013-04-15 03:00:00,69.6,59.0,29.95,WNW,291,0.0,0.0,69,0.00,OVC,,0.00,WeatherDisplay:10.37,2013-04-15 07:00:00,
2013-04-15 03:05:00,69.6,59.4,29.95,WNW,291,0.0,0.0,70,0.00,OVC,,0.00,WeatherDisplay:10.37,2013-04-15 07:05:00,
2013-04-15 03:31:00,69.8,60.8,29.95,WNW,291,0.0,0.0,73,0.00,OVC,,0.00,WeatherDisplay:10.37,2013-04-15 07:31:00,
2013-04-15 03:46:00,69.8,61.1,29.95,WNW,291,0.0,0.0,74,0.00,OVC,,0.00,WeatherDisplay:10.37,2013-04-15 07:46:00,
2013-04-15 03:48:00,69.8,61.1,29.95,WNW,291,0.0,0.0,74,0.00,OVC,,0.00,WeatherDisplay:10.37,2013-04-15 07:48:00,
2013-04-15 03:49:00,69.8,61.1,29.95,WNW,291,0.0,0.0,74,0.00,OVC,,0.00,WeatherDisplay:10.37,2013-04-15 07:49:00,
2013-04-15 03:53:00,69.8,61.1,29.95,WNW,291,0.0,0.0,74,0.00,OVC,,0.00,WeatherDisplay:10.37,2013-04-15 07:53:00,
2013-04-15 04:00:00,69.8,61.5,29.95,WNW,291,0.0,0.0,75,0.00,OVC,,0.00,WeatherDisplay:10.37,2013-04-15 08:00:00,
2013-04-15 04:01:00,69.8,61.9,29.95,WNW,291,0.0,0.0,76,0.00,OVC,,0.00,WeatherDisplay:10.37,2013-04-15 08:01:00,
2013-04-15 04:05:00,69.8,61.5,29.95,WNW,291,0.0,0.0,75,0.00,OVC,,0.00,WeatherDisplay:10.37,2013-04-15 08:05:00,
2013-04-15 04:10:00,69.8,61.9,29.95,WNW,291,0.0,0.0,76,0.00,OVC,,0.00,WeatherDisplay:10.37,2013-04-15 08:10:00,
2013-04-15 04:16:00,69.8,62.3,29.95,WNW,291,0.0,0.0,77,0.00,OVC,,0.00,WeatherDisplay:10.37,2013-04-15 08:16:00,
2013-04-15 04:21:00,69.8,62.6,29.95,WNW,291,0.0,0.0,78,0.00,OVC,,0.00,WeatherDisplay:10.37,2013-04-15 08:21:00,
2013-04-15 04:31:00,70.0,62.8,29.95,WNW,291,0.0,0.0,78,0.00,OVC,,0.00,WeatherDisplay:10.37,2013-04-15 08:31:00,
2013-04-15 04:35:00,70.0,62.8,29.95,WNW,291,0.0,0.0,78,0.00,OVC,,0.00,WeatherDisplay:10.37,2013-04-15 08:35:00,
2013-04-15 04:40:00,70.0,62.8,29.95,WNW,291,0.0,0.0,78,0.00,OVC,,0.00,WeatherDisplay:10.37,2013-04-15 08:40:00,
2013-04-15 04:46:00,70.2,63.0,29.95,WNW,291,0.0,0.0,78,0.00,OVC,,0.00,WeatherDisplay:10.37,2013-04-15 08:46:00,
2013-04-15 04:51:00,70.3,63.2,29.95,WNW,291,0.0,0.0,78,0.00,OVC,,0.00,WeatherDisplay:10.37,2013-04-15 08:51:00,
2013-04-15 05:00:00,70.3,63.2,29.95,WNW,291,0.0,0.0,78,0.00,OVC,,0.00,WeatherDisplay:10.37,2013-04-15 09:00:00,
2013-04-15 05:01:00,70.2,63.0,29.95,WNW,291,0.0,0.0,78,0.00,OVC,,0.00,WeatherDisplay:10.37,2013-04-15 09:01:00,
2013-04-15 05:05:00,70.2,63.0,29.95,WNW,291,0.0,0.0,78,0.00,OVC,,0.00,WeatherDisplay:10.37,2013-04-15 09:05:00,
2013-04-15 05:10:00,70.2,63.0,29.95,WNW,291,0.0,0.0,78,0.00,OVC,,0.00,WeatherDisplay:10.37,2013-04-15 09:10:00,
2013-04-15 05:16:00,70.0,62.8,29.95,WNW,291,0.0,0.0,78,0.00,OVC,,0.00,WeatherDisplay:10.37,2013-04-15 09:16:00,
2013-04-15 05:21:00,69.8,63.0,29.95,WNW,291,0.0,0.0,79,0.00,OVC,,0.00,WeatherDisplay:10.37,2013-04-15 09:21:00,
2013-04-15 05:31:00,69.6,62.8,29.95,WNW,291,0.0,0.0,79,0.00,OVC,,0.00,WeatherDisplay:10.37,2013-04-15 09:31:00,
2013-04-15 05:36:00,69.6,62.8,29.95,WNW,291,0.0,0.0,79,0.00,OVC,,0.00,WeatherDisplay:10.37,2013-04-15 09:36:00,
2013-04-15 05:46:00,69.4,62.6,29.92,WNW,291,0.0,0.0,79,0.00,OVC,,0.00,WeatherDisplay:10.37,2013-04-15 09:46:00,
2013-04-15 05:52:00,69.3,62.5,29.92,WNW,291,0.0,0.0,79,0.00,OVC,,0.00,WeatherDisplay:10.37,2013-04-15 09:52:00,
2013-04-15 06:00:00,69.3,62.5,29.95,WNW,291,0.0,0.0,79,0.00,OVC,,0.00,WeatherDisplay:10.37,2013-04-15 10:00:00,
2013-04-15 06:01:00,69.1,62.3,29.95,WNW,291,0.0,0.0,79,0.00,CLR,,0.00,WeatherDisplay:10.37,2013-04-15 10:01:00,
2013-04-15 06:05:00,69.3,62.5,29.95,WNW,291,0.0,0.0,79,0.00,CLR,,0.00,WeatherDisplay:10.37,2013-04-15 10:05:00,
2013-04-15 06:10:00,69.1,62.3,29.95,WNW,291,0.0,0.0,79,0.00,CLR,,0.00,WeatherDisplay:10.37,2013-04-15 10:10:00,
2013-04-15 06:16:00,69.3,62.8,29.95,WNW,291,0.0,0.0,80,0.00,CLR,,0.00,WeatherDisplay:10.37,2013-04-15 10:16:00,
2013-04-15 06:21:00,69.3,62.8,29.95,WNW,291,0.0,0.0,80,0.00,CLR,,0.00,WeatherDisplay:10.37,2013-04-15 10:21:00,
2013-04-15 06:31:00,69.3,62.8,29.92,WNW,291,0.0,0.0,80,0.00,CLR,,0.00,WeatherDisplay:10.37,2013-04-15 10:31:00,
2013-04-15 06:36:00,69.4,63.0,29.92,WNW,291,0.0,0.0,80,0.00,CLR,,0.00,WeatherDisplay:10.37,2013-04-15 10:36:00,
2013-04-15 06:46:00,69.6,63.2,29.92,WNW,291,0.0,0.0,80,0.00,CLR,,0.00,WeatherDisplay:10.37,2013-04-15 10:46:00,
2013-04-15 06:51:00,69.8,63.0,29.92,WNW,291,0.0,0.0,79,0.00,CLR,,0.00,WeatherDisplay:10.37,2013-04-15 10:51:00,
2013-04-15 07:00:00,70.5,63.3,29.92,WNW,291,0.0,0.0,78,0.00,CLR,,0.00,WeatherDisplay:10.37,2013-04-15 11:00:00,
2013-04-15 07:01:00,71.1,63.5,29.92,WNW,291,0.0,0.0,77,0.00,CLR,,0.00,WeatherDisplay:10.37,2013-04-15 11:01:00,
2013-04-15 07:05:00,70.7,63.5,29.92,WNW,291,0.0,0.0,78,0.00,CLR,,0.00,WeatherDisplay:10.37,2013-04-15 11:05:00,
2013-04-15 07:10:00,71.1,63.5,29.92,WNW,291,0.0,0.0,77,0.00,CLR,,0.00,WeatherDisplay:10.37,2013-04-15 11:10:00,
2013-04-15 07:16:00,71.2,63.3,29.92,WNW,291,0.0,0.0,76,0.00,CLR,,0.00,WeatherDisplay:10.37,2013-04-15 11:16:00,
2013-04-15 07:21:00,71.4,63.1,29.92,WNW,291,0.0,0.0,75,0.00,CLR,,0.00,WeatherDisplay:10.37,2013-04-15 11:21:00,
2013-04-15 07:31:00,71.8,62.7,29.95,WNW,291,0.0,0.0,73,0.00,CLR,,0.00,WeatherDisplay:10.37,2013-04-15 11:31:00,
2013-04-15 07:36:00,72.0,62.8,29.95,WNW,291,0.0,0.0,73,0.00,CLR,,0.00,WeatherDisplay:10.37,2013-04-15 11:36:00,
2013-04-15 07:46:00,72.0,62.4,29.95,WNW,291,0.0,0.0,72,0.00,CLR,,0.00,WeatherDisplay:10.37,2013-04-15 11:46:00,
2013-04-15 07:51:00,72.1,62.6,29.95,WNW,291,0.0,0.0,72,0.00,CLR,,0.00,WeatherDisplay:10.37,2013-04-15 11:51:00,
2013-04-15 08:00:00,72.5,63.0,29.95,WNW,291,0.0,0.0,72,0.00,CLR,,0.00,WeatherDisplay:10.37,2013-04-15 12:00:00,
2013-04-15 08:01:00,72.9,63.3,29.95,WNW,291,0.0,0.0,72,0.00,CLR,,0.00,WeatherDisplay:10.37,2013-04-15 12:01:00,
2013-04-15 08:05:00,72.7,63.5,29.95,WNW,291,0.0,0.0,73,0.00,CLR,,0.00,WeatherDisplay:10.37,2013-04-15 12:05:00,
2013-04-15 08:10:00,72.9,63.3,29.95,WNW,291,0.0,0.0,72,0.00,CLR,,0.00,WeatherDisplay:10.37,2013-04-15 12:10:00,
2013-04-15 08:16:00,73.0,63.9,29.98,WNW,291,0.0,0.0,73,0.00,CLR,,0.00,WeatherDisplay:10.37,2013-04-15 12:16:00,
2013-04-15 08:22:00,73.2,63.6,29.98,WNW,291,0.0,0.0,72,0.00,CLR,,0.00,WeatherDisplay:10.37,2013-04-15 12:22:00,
2013-04-15 08:31:00,73.6,64.0,29.98,WNW,291,0.0,0.0,72,0.00,CLR,,0.00,WeatherDisplay:10.37,2013-04-15 12:31:00,
2013-04-15 08:36:00,73.9,64.3,29.98,WNW,291,0.0,0.0,72,0.00,CLR,,0.00,WeatherDisplay:10.37,2013-04-15 12:36:00,
2013-04-15 08:46:00,74.7,65.0,29.98,WNW,291,0.0,0.0,72,0.00,CLR,,0.00,WeatherDisplay:10.37,2013-04-15 12:46:00,
2013-04-15 08:51:00,74.8,64.4,29.98,WNW,291,0.0,0.0,70,0.00,CLR,,0.00,WeatherDisplay:10.37,2013-04-15 12:51:00,
2013-04-15 09:00:00,75.0,64.2,29.98,WNW,291,0.0,0.0,69,0.00,CLR,,0.00,WeatherDisplay:10.37,2013-04-15 13:00:00,
2013-04-15 09:01:00,75.4,64.1,29.98,WNW,291,0.0,0.0,68,0.00,CLR,,0.00,WeatherDisplay:10.37,2013-04-15 13:01:00,
2013-04-15 09:05:00,75.2,63.9,29.98,WNW,291,0.0,0.0,68,0.00,CLR,,0.00,WeatherDisplay:10.37,2013-04-15 13:05:00,
2013-04-15 09:10:00,75.4,64.1,29.98,WNW,291,0.0,0.0,68,0.00,CLR,,0.00,WeatherDisplay:10.37,2013-04-15 13:10:00,
2013-04-15 09:16:00,75.6,63.8,29.95,WNW,291,0.0,0.0,67,0.00,CLR,,0.00,WeatherDisplay:10.37,2013-04-15 13:16:00,
2013-04-15 09:21:00,75.6,63.4,29.95,WNW,291,0.0,0.0,66,0.00,CLR,,0.00,WeatherDisplay:10.37,2013-04-15 13:21:00,
2013-04-15 09:31:00,75.7,63.6,29.98,WNW,291,0.0,0.0,66,0.00,CLR,,0.00,WeatherDisplay:10.37,2013-04-15 13:31:00,
2013-04-15 09:36:00,75.9,63.7,29.98,WNW,291,0.0,0.0,66,0.00,CLR,,0.00,WeatherDisplay:10.37,2013-04-15 13:36:00,
2013-04-15 09:46:00,76.3,64.5,29.98,WNW,291,0.0,0.0,67,0.00,CLR,,0.00,WeatherDisplay:10.37,2013-04-15 13:46:00,
2013-04-15 09:51:00,76.6,64.9,29.98,WNW,291,0.0,0.0,67,0.00,CLR,,0.00,WeatherDisplay:10.37,2013-04-15 13:51:00,
2013-04-15 10:00:00,77.4,64.2,29.98,WNW,291,0.0,0.0,64,0.00,CLR,,0.00,WeatherDisplay:10.37,2013-04-15 14:00:00,
2013-04-15 10:01:00,78.1,63.5,29.98,WNW,291,0.0,0.0,61,0.00,CLR,,0.00,WeatherDisplay:10.37,2013-04-15 14:01:00,
2013-04-15 10:05:00,77.9,64.3,29.98,WNW,291,0.0,0.0,63,0.00,CLR,,0.00,WeatherDisplay:10.37,2013-04-15 14:05:00,
2013-04-15 10:10:00,78.1,64.0,29.98,WNW,291,0.0,0.0,62,0.00,CLR,,0.00,WeatherDisplay:10.37,2013-04-15 14:10:00,
2013-04-15 10:16:00,78.4,62.4,29.98,WNW,291,0.0,0.0,58,0.00,CLR,,0.00,WeatherDisplay:10.37,2013-04-15 14:16:00,
2013-04-15 10:21:00,79.2,63.6,29.98,WNW,291,0.0,0.0,59,0.00,CLR,,0.00,WeatherDisplay:10.37,2013-04-15 14:21:00,
2013-04-15 10:31:00,80.4,62.8,30.01,WNW,291,0.0,0.0,55,0.00,CLR,,0.00,WeatherDisplay:10.37,2013-04-15 14:31:00,
2013-04-15 10:36:00,81.1,61.3,30.01,WNW,291,0.0,0.0,51,0.00,CLR,,0.00,WeatherDisplay:10.37,2013-04-15 14:36:00,
2013-04-15 10:46:00,82.4,60.1,30.01,WNW,291,0.0,0.0,47,0.00,CLR,,0.00,WeatherDisplay:10.37,2013-04-15 14:46:00,
2013-04-15 10:51:00,82.9,60.6,30.01,WNW,291,0.0,0.0,47,0.00,CLR,,0.00,WeatherDisplay:10.37,2013-04-15 14:51:00,
2013-04-15 11:00:00,83.3,58.5,30.01,ESE,110,5.8,5.8,43,0.00,CLR,,0.00,WeatherDisplay:10.37,2013-04-15 15:00:00,
2013-04-15 11:01:00,84.4,56.7,30.01,ESE,106,4.6,4.6,39,0.00,CLR,,0.00,WeatherDisplay:10.37,2013-04-15 15:01:00,
2013-04-15 11:05:00,83.8,58.3,30.01,ESE,107,3.6,3.6,42,0.00,CLR,,0.00,WeatherDisplay:10.37,2013-04-15 15:05:00,
2013-04-15 11:10:00,84.4,56.0,30.01,SSE,158,5.8,5.8,38,0.00,CLR,,0.00,WeatherDisplay:10.37,2013-04-15 15:10:00,
2013-04-15 11:16:00,84.6,54.7,30.01,SW,226,5.8,5.8,36,0.00,CLR,,0.00,WeatherDisplay:10.37,2013-04-15 15:16:00,
2013-04-15 11:22:00,84.7,56.3,30.01,ESE,110,3.6,3.6,38,0.00,CLR,,0.00,WeatherDisplay:10.37,2013-04-15 15:22:00,
2013-04-15 11:31:00,85.1,57.4,30.01,SW,236,5.8,5.8,39,0.00,CLR,,0.00,WeatherDisplay:10.37,2013-04-15 15:31:00,
2013-04-15 11:36:00,85.3,58.9,30.01,North,350,9.2,9.2,41,0.00,CLR,,0.00,WeatherDisplay:10.37,2013-04-15 15:36:00,
2013-04-15 11:46:00,84.6,57.6,30.04,NNW,341,5.8,5.8,40,0.00,CLR,,0.00,WeatherDisplay:10.37,2013-04-15 15:46:00,
2013-04-15 11:52:00,84.2,58.6,30.04,North,357,4.9,4.9,42,0.00,CLR,,0.00,WeatherDisplay:10.37,2013-04-15 15:52:00,
2013-04-15 12:00:00,84.0,58.5,30.04,NNW,328,6.7,6.7,42,0.00,CLR,,0.00,WeatherDisplay:10.37,2013-04-15 16:00:00,
2013-04-15 12:01:00,84.4,57.4,30.04,North,350,4.9,4.9,40,0.00,CLR,,0.00,WeatherDisplay:10.37,2013-04-15 16:01:00,
2013-04-15 12:05:00,84.2,57.9,30.04,North,10,4.6,4.6,41,0.00,CLR,,0.00,WeatherDisplay:10.37,2013-04-15 16:05:00,
2013-04-15 12:10:00,84.4,57.4,30.04,NNW,333,3.4,3.4,40,0.00,CLR,,0.00,WeatherDisplay:10.37,2013-04-15 16:10:00,
2013-04-15 12:16:00,85.1,58.8,30.04,ESE,110,3.4,3.4,41,0.00,CLR,,0.00,WeatherDisplay:10.37,2013-04-15 16:16:00,
2013-04-15 12:21:00,85.6,57.8,30.04,NNE,31,3.6,3.6,39,0.00,CLR,,0.00,WeatherDisplay:10.37,2013-04-15 16:21:00,
2013-04-15 12:31:00,85.8,58.0,30.04,SSE,150,3.6,3.6,39,0.00,CLR,,0.00,WeatherDisplay:10.37,2013-04-15 16:31:00,
2013-04-15 12:36:00,86.5,59.3,30.04,East,99,5.8,5.8,40,0.00,CLR,,0.00,WeatherDisplay:10.37,2013-04-15 16:36:00,
2013-04-15 12:46:00,88.3,58.8,30.04,ESE,121,3.4,0.0,37,0.00,CLR,,0.00,WeatherDisplay:10.37,2013-04-15 16:46:00,
2013-04-15 12:47:00,87.6,58.9,30.04,SE,127,2.3,0.0,38,0.00,CLR,,0.00,WeatherDisplay:10.37,2013-04-15 16:47:00,
2013-04-15 12:52:00,88.0,56.9,30.04,ENE,62,3.6,3.6,35,0.00,CLR,,0.00,WeatherDisplay:10.37,2013-04-15 16:52:00,
2013-04-15 13:00:00,88.5,58.2,30.01,NNW,337,3.4,3.4,36,0.00,CLR,,0.00,WeatherDisplay:10.37,2013-04-15 17:00:00,
2013-04-15 13:01:00,89.1,57.0,30.01,NE,48,5.8,5.8,34,0.00,CLR,,0.00,WeatherDisplay:10.37,2013-04-15 17:01:00,
2013-04-15 13:05:00,88.7,58.3,30.01,East,93,2.3,0.0,36,0.00,CLR,,0.00,WeatherDisplay:10.37,2013-04-15 17:05:00,
2013-04-15 13:10:00,88.9,56.1,30.01,East,84,5.4,5.4,33,0.00,CLR,,0.00,WeatherDisplay:10.37,2013-04-15 17:10:00,
2013-04-15 13:16:00,88.9,54.3,30.01,South,191,5.8,5.8,31,0.00,CLR,,0.00,WeatherDisplay:10.37,2013-04-15 17:16:00,
2013-04-15 13:21:00,88.7,55.9,30.01,WSW,257,0.0,2.7,33,0.00,CLR,,0.00,WeatherDisplay:10.37,2013-04-15 17:21:00,
2013-04-15 13:22:00,88.7,55.9,30.01,WSW,257,0.0,2.7,33,0.00,CLR,,0.00,WeatherDisplay:10.37,2013-04-15 17:22:00,
2013-04-15 13:25:00,88.9,57.7,30.01,ESE,103,3.4,3.4,35,0.00,CLR,,0.00,WeatherDisplay:10.37,2013-04-15 17:25:00,
2013-04-15 13:31:00,89.4,55.7,30.01,SW,232,5.8,5.8,32,0.00,CLR,,0.00,WeatherDisplay:10.37,2013-04-15 17:31:00,
2013-04-15 13:36:00,89.4,56.5,30.01,ESE,123,3.4,3.4,33,0.00,CLR,,0.00,WeatherDisplay:10.37,2013-04-15 17:36:00,
2013-04-15 13:46:00,89.6,54.1,30.01,West,269,5.8,5.8,30,0.00,CLR,,0.00,WeatherDisplay:10.37,2013-04-15 17:46:00,
2013-04-15 13:51:00,89.4,55.7,30.01,NE,36,3.6,3.6,32,0.00,CLR,,0.00,WeatherDisplay:10.37,2013-04-15 17:51:00,
2013-04-15 14:00:00,91.2,59.7,30.01,East,96,3.6,0.0,35,0.00,CLR,,0.00,WeatherDisplay:10.37,2013-04-15 18:00:00,
2013-04-15 14:01:00,92.3,58.2,30.01,East,81,4.0,4.0,32,0.00,CLR,,0.00,WeatherDisplay:10.37,2013-04-15 18:01:00,
2013-04-15 14:05:00,91.9,57.9,30.01,ESE,118,4.6,4.6,32,0.00,CLR,,0.00,WeatherDisplay:10.37,2013-04-15 18:05:00,
2013-04-15 14:10:00,92.3,56.4,30.01,NNE,25,3.4,3.4,30,0.00,CLR,,0.00,WeatherDisplay:10.37,2013-04-15 18:10:00,
2013-04-15 14:16:00,92.1,55.3,30.01,SW,224,3.4,3.6,29,0.00,CLR,,0.00,WeatherDisplay:10.37,2013-04-15 18:16:00,
2013-04-15 14:21:00,91.4,56.5,30.01,SE,132,3.4,0.0,31,0.00,CLR,,0.00,WeatherDisplay:10.37,2013-04-15 18:21:00,
2013-04-15 14:31:00,92.1,55.3,30.01,WSW,256,3.6,3.6,29,0.00,CLR,,0.00,WeatherDisplay:10.37,2013-04-15 18:31:00,
2013-04-15 14:32:00,92.1,55.3,30.01,WNW,292,5.8,5.8,29,0.00,CLR,,0.00,WeatherDisplay:10.37,2013-04-15 18:32:00,
2013-04-15 14:37:00,91.9,56.1,30.01,West,271,4.6,0.0,30,0.00,CLR,,0.00,WeatherDisplay:10.37,2013-04-15 18:37:00,
2013-04-15 14:46:00,91.6,55.8,30.01,West,278,6.3,6.3,30,0.00,CLR,,0.00,WeatherDisplay:10.37,2013-04-15 18:46:00,
2013-04-15 14:51:00,92.3,56.4,30.01,SW,224,5.8,5.8,30,0.00,CLR,,0.00,WeatherDisplay:10.37,2013-04-15 18:51:00,
2013-04-15 15:00:00,92.3,55.4,30.01,SSW,195,5.4,5.4,29,0.00,CLR,,0.00,WeatherDisplay:10.37,2013-04-15 19:00:00,
2013-04-15 15:01:00,91.8,56.8,30.01,WNW,303,7.6,7.6,31,0.00,FEW,,0.00,WeatherDisplay:10.37,2013-04-15 19:01:00,
2013-04-15 15:05:00,92.7,56.7,30.01,NW,305,4.0,4.0,30,0.00,FEW,,0.00,WeatherDisplay:10.37,2013-04-15 19:05:00,
2013-04-15 15:10:00,91.9,57.9,30.01,NW,312,6.3,6.3,32,0.00,FEW,,0.00,WeatherDisplay:10.37,2013-04-15 19:10:00,
2013-04-15 15:16:00,91.0,58.8,30.01,WSW,238,6.3,6.3,34,0.00,FEW,,0.00,WeatherDisplay:10.37,2013-04-15 19:16:00,
2013-04-15 15:21:00,90.5,59.1,30.01,WSW,250,8.1,8.1,35,0.00,FEW,,0.00,WeatherDisplay:10.37,2013-04-15 19:21:00,
2013-04-15 15:31:00,90.0,58.6,30.01,WNW,284,5.8,5.8,35,0.00,FEW,,0.00,WeatherDisplay:10.37,2013-04-15 19:31:00,
2013-04-15 15:36:00,89.6,59.1,30.01,West,281,8.0,8.0,36,0.00,FEW,,0.00,WeatherDisplay:10.37,2013-04-15 19:36:00,
2013-04-15 15:46:00,89.2,58.0,29.98,SW,236,8.3,8.3,35,0.00,FEW,,0.00,WeatherDisplay:10.37,2013-04-15 19:46:00,
2013-04-15 15:51:00,89.1,57.8,29.98,NW,308,5.8,5.8,35,0.00,FEW,,0.00,WeatherDisplay:10.37,2013-04-15 19:51:00,
2013-04-15 16:00:00,89.4,59.0,29.98,WSW,251,5.8,5.8,36,0.00,FEW,,0.00,WeatherDisplay:10.37,2013-04-15 20:00:00,
2013-04-15 16:01:00,90.5,57.5,29.98,WSW,244,5.8,5.8,33,0.00,CLR,,0.00,WeatherDisplay:10.37,2013-04-15 20:01:00,
2013-04-15 16:02:00,89.6,59.1,29.98,West,259,8.1,8.1,36,0.00,CLR,,0.00,WeatherDisplay:10.37,2013-04-15 20:02:00,
2013-04-15 16:03:00,89.8,59.3,29.98,NW,326,6.7,6.7,36,0.00,CLR,,0.00,WeatherDisplay:10.37,2013-04-15 20:03:00,
2013-04-15 16:06:00,90.3,58.1,29.98,North,357,6.9,6.9,34,0.00,CLR,,0.00,WeatherDisplay:10.37,2013-04-15 20:06:00,
2013-04-15 16:16:00,90.0,57.0,29.98,West,267,6.9,6.9,33,0.00,CLR,,0.00,WeatherDisplay:10.37,2013-04-15 20:16:00,
2013-04-15 16:21:00,90.1,58.0,29.98,WNW,291,5.8,5.8,34,0.00,CLR,,0.00,WeatherDisplay:10.37,2013-04-15 20:21:00,
2013-04-15 16:31:00,90.5,57.5,29.98,NNE,21,4.6,4.6,33,0.00,CLR,,0.00,WeatherDisplay:10.37,2013-04-15 20:31:00,
2013-04-15 16:36:00,90.3,56.5,29.98,NW,326,5.8,5.8,32,0.00,CLR,,0.00,WeatherDisplay:10.37,2013-04-15 20:36:00,
2013-04-15 16:46:00,89.6,57.5,29.98,North,1,5.8,5.8,34,0.00,CLR,,0.00,WeatherDisplay:10.37,2013-04-15 20:46:00,
2013-04-15 16:51:00,89.6,56.7,29.98,WSW,239,3.4,3.4,33,0.00,CLR,,0.00,WeatherDisplay:10.37,2013-04-15 20:51:00,
2013-04-15 17:00:00,90.7,56.8,29.98,North,353,5.8,5.8,32,0.00,CLR,,0.00,WeatherDisplay:10.37,2013-04-15 21:00:00,
2013-04-15 17:01:00,90.5,56.6,29.98,NW,307,5.8,5.8,32,0.00,CLR,,0.00,WeatherDisplay:10.37,2013-04-15 21:01:00,
2013-04-15 17:05:00,90.5,55.7,29.98,West,261,4.6,4.6,31,0.00,CLR,,0.00,WeatherDisplay:10.37,2013-04-15 21:05:00,
2013-04-15 17:10:00,90.5,55.7,29.98,North,357,5.8,5.8,31,0.00,CLR,,0.00,WeatherDisplay:10.37,2013-04-15 21:10:00,
2013-04-15 17:16:00,90.7,55.9,29.98,North,349,5.8,5.8,31,0.00,CLR,,0.00,WeatherDisplay:10.37,2013-04-15 21:16:00,
2013-04-15 17:21:00,90.9,56.0,29.98,WNW,295,8.1,8.1,31,0.00,CLR,,0.00,WeatherDisplay:10.37,2013-04-15 21:21:00,
2013-04-15 17:31:00,89.6,55.0,29.98,North,0,5.8,5.8,31,0.00,CLR,,0.00,WeatherDisplay:10.37,2013-04-15 21:31:00,
2013-04-15 17:36:00,88.5,55.7,29.98,WSW,242,8.3,8.3,33,0.00,CLR,,0.00,WeatherDisplay:10.37,2013-04-15 21:36:00,
2013-04-15 17:46:00,88.0,56.9,29.98,NW,305,5.8,5.8,35,0.00,CLR,,0.00,WeatherDisplay:10.37,2013-04-15 21:46:00,
2013-04-15 17:51:00,87.4,56.4,29.98,WSW,244,8.1,8.1,35,0.00,CLR,,0.00,WeatherDisplay:10.37,2013-04-15 21:51:00,
2013-04-15 18:00:00,87.6,57.4,30.01,NNW,346,5.8,5.8,36,0.00,CLR,,0.00,WeatherDisplay:10.37,2013-04-15 22:00:00,
2013-04-15 18:01:00,87.6,56.6,30.01,West,279,5.4,5.4,35,0.00,CLR,,0.00,WeatherDisplay:10.37,2013-04-15 22:01:00,
2013-04-15 18:05:00,87.8,57.5,30.01,NNW,346,4.0,4.0,36,0.00,CLR,,0.00,WeatherDisplay:10.37,2013-04-15 22:05:00,
2013-04-15 18:10:00,87.6,56.6,30.01,West,279,5.4,5.4,35,0.00,CLR,,0.00,WeatherDisplay:10.37,2013-04-15 22:10:00,
2013-04-15 18:16:00,87.3,57.0,30.01,WNW,283,4.9,4.9,36,0.00,CLR,,0.00,WeatherDisplay:10.37,2013-04-15 22:16:00,
2013-04-15 18:21:00,86.5,56.4,30.01,WNW,295,8.1,8.1,36,0.00,CLR,,0.00,WeatherDisplay:10.37,2013-04-15 22:21:00,
2013-04-15 18:31:00,85.8,57.3,30.01,WNW,283,5.8,5.8,38,0.00,CLR,,0.00,WeatherDisplay:10.37,2013-04-15 22:31:00,
2013-04-15 18:36:00,85.6,57.1,30.01,SW,220,5.8,5.8,38,0.00,CLR,,0.00,WeatherDisplay:10.37,2013-04-15 22:36:00,
2013-04-15 18:46:00,84.2,57.3,30.01,WSW,250,5.8,5.8,40,0.00,CLR,,0.00,WeatherDisplay:10.37,2013-04-15 22:46:00,
2013-04-15 18:51:00,83.8,57.6,30.01,West,272,6.3,6.3,41,0.00,CLR,,0.00,WeatherDisplay:10.37,2013-04-15 22:51:00,
2013-04-15 19:00:00,83.5,57.3,30.01,ENE,78,3.4,3.4,41,0.00,CLR,,0.00,WeatherDisplay:10.37,2013-04-15 23:00:00,
2013-04-15 19:01:00,83.3,57.1,30.01,West,280,3.4,0.0,41,0.00,CLR,,0.00,WeatherDisplay:10.37,2013-04-15 23:01:00,
2013-04-15 19:05:00,83.7,57.5,30.01,WNW,285,3.6,3.6,41,0.00,CLR,,0.00,WeatherDisplay:10.37,2013-04-15 23:05:00,
2013-04-15 19:10:00,83.5,57.3,30.01,West,270,4.6,0.0,41,0.00,CLR,,0.00,WeatherDisplay:10.37,2013-04-15 23:10:00,
2013-04-15 19:16:00,82.6,56.5,30.01,WSW,248,5.8,5.8,41,0.00,CLR,,0.00,WeatherDisplay:10.37,2013-04-15 23:16:00,
2013-04-15 19:21:00,82.0,56.7,30.01,West,280,3.6,3.6,42,0.00,CLR,,0.00,WeatherDisplay:10.37,2013-04-15 23:21:00,
2013-04-15 19:31:00,81.0,56.4,30.01,WNW,303,2.3,0.0,43,0.00,CLR,,0.00,WeatherDisplay:10.37,2013-04-15 23:31:00,
2013-04-15 19:36:00,80.8,56.8,30.01,West,281,0.0,0.0,44,0.00,CLR,,0.00,WeatherDisplay:10.37,2013-04-15 23:36:00,
2013-04-15 19:46:00,80.4,57.1,30.01,WNW,282,3.4,3.4,45,0.00,CLR,,0.00,WeatherDisplay:10.37,2013-04-15 23:46:00,
2013-04-15 19:51:00,80.1,56.8,30.01,WSW,252,3.4,3.4,45,0.00,CLR,,0.00,WeatherDisplay:10.37,2013-04-15 23:51:00,
2013-04-15 20:00:00,79.3,56.8,30.01,West,275,5.8,5.8,46,0.00,CLR,,0.00,WeatherDisplay:10.37,2013-04-16 00:00:00,
2013-04-15 20:01:00,79.0,57.0,30.01,West,266,5.8,5.8,47,0.00,CLR,,0.00,WeatherDisplay:10.37,2013-04-16 00:01:00,
2013-04-15 20:05:00,79.2,57.2,30.01,NW,319,4.9,4.9,47,0.00,CLR,,0.00,WeatherDisplay:10.37,2013-04-16 00:05:00,
2013-04-15 20:10:00,79.0,57.0,30.01,West,281,5.8,5.8,47,0.00,CLR,,0.00,WeatherDisplay:10.37,2013-04-16 00:10:00,
2013-04-15 20:16:00,78.8,57.4,30.01,WNW,292,6.3,6.3,48,0.00,CLR,,0.00,WeatherDisplay:10.37,2013-04-16 00:16:00,
2013-04-15 20:21:00,78.4,57.1,30.01,WSW,245,4.6,4.6,48,0.00,CLR,,0.00,WeatherDisplay:10.37,2013-04-16 00:21:00,
2013-04-15 20:31:00,78.1,57.4,30.04,WNW,287,3.4,3.4,49,0.00,CLR,,0.00,WeatherDisplay:10.37,2013-04-16 00:31:00,
2013-04-15 20:36:00,78.1,57.4,30.04,NW,309,2.3,0.0,49,0.00,CLR,,0.00,WeatherDisplay:10.37,2013-04-16 00:36:00,
2013-04-15 20:46:00,77.9,57.8,30.04,NNW,333,3.4,3.4,50,0.00,CLR,,0.00,WeatherDisplay:10.37,2013-04-16 00:46:00,
2013-04-15 20:51:00,77.9,57.8,30.04,WSW,258,3.4,3.4,50,0.00,CLR,,0.00,WeatherDisplay:10.37,2013-04-16 00:51:00,
2013-04-15 21:00:00,77.7,57.0,30.04,ESE,102,3.6,3.6,49,0.00,CLR,,0.00,WeatherDisplay:10.37,2013-04-16 01:00:00,
2013-04-15 21:01:00,77.4,57.3,30.04,West,281,3.4,3.4,50,0.00,OVC,,0.00,WeatherDisplay:10.37,2013-04-16 01:01:00,
2013-04-15 21:05:00,77.5,56.9,30.04,West,264,2.7,0.0,49,0.00,OVC,,0.00,WeatherDisplay:10.37,2013-04-16 01:05:00,
2013-04-15 21:10:00,77.4,57.3,30.04,West,281,3.4,3.4,50,0.00,OVC,,0.00,WeatherDisplay:10.37,2013-04-16 01:10:00,
2013-04-15 21:16:00,77.4,56.7,30.07,NNW,337,0.0,0.0,49,0.00,OVC,,0.00,WeatherDisplay:10.37,2013-04-16 01:16:00,
2013-04-15 21:21:00,77.2,57.1,30.07,North,357,3.4,0.0,50,0.00,OVC,,0.00,WeatherDisplay:10.37,2013-04-16 01:21:00,
2013-04-15 21:31:00,77.2,57.7,30.07,ENE,76,2.3,0.0,51,0.00,OVC,,0.00,WeatherDisplay:10.37,2013-04-16 01:31:00,
2013-04-15 21:36:00,77.2,57.7,30.07,NE,54,0.0,0.0,51,0.00,OVC,,0.00,WeatherDisplay:10.37,2013-04-16 01:36:00,
2013-04-15 21:46:00,77.0,57.5,30.07,North,2,2.7,0.0,51,0.00,OVC,,0.00,WeatherDisplay:10.37,2013-04-16 01:46:00,
2013-04-15 21:51:00,76.8,57.9,30.07,North,357,2.3,0.0,52,0.00,OVC,,0.00,WeatherDisplay:10.37,2013-04-16 01:51:00,
2013-04-15 22:00:00,76.6,58.2,30.07,NW,323,0.0,0.0,53,0.00,OVC,,0.00,WeatherDisplay:10.37,2013-04-16 02:00:00,
2013-04-15 22:01:00,76.6,58.2,30.07,North,353,3.4,3.4,53,0.00,CLR,,0.00,WeatherDisplay:10.37,2013-04-16 02:01:00,
2013-04-15 22:05:00,76.6,58.2,30.07,NW,305,3.4,3.4,53,0.00,CLR,,0.00,WeatherDisplay:10.37,2013-04-16 02:05:00,
2013-04-15 22:10:00,76.6,58.2,30.07,NNE,22,3.4,3.4,53,0.00,CLR,,0.00,WeatherDisplay:10.37,2013-04-16 02:10:00,
2013-04-15 22:16:00,76.5,58.1,30.07,NNW,343,3.4,3.4,53,0.00,CLR,,0.00,WeatherDisplay:10.37,2013-04-16 02:16:00,
2013-04-15 22:21:00,76.5,58.1,30.07,North,350,2.7,0.0,53,0.00,CLR,,0.00,WeatherDisplay:10.37,2013-04-16 02:21:00,
2013-04-15 22:31:00,76.1,57.7,30.07,NNW,337,0.0,0.0,53,0.00,CLR,,0.00,WeatherDisplay:10.37,2013-04-16 02:31:00,
2013-04-15 22:36:00,75.9,58.1,30.07,NNW,337,0.0,0.0,54,0.00,CLR,,0.00,WeatherDisplay:10.37,2013-04-16 02:36:00,
2013-04-15 22:46:00,75.4,57.6,30.07,NNW,337,0.0,0.0,54,0.00,CLR,,0.00,WeatherDisplay:10.37,2013-04-16 02:46:00,
2013-04-15 22:51:00,75.0,57.8,30.07,NNW,337,0.0,0.0,55,0.00,CLR,,0.00,WeatherDisplay:10.37,2013-04-16 02:51:00,
2013-04-15 23:00:00,74.5,57.8,30.07,NNW,337,0.0,0.0,56,0.00,CLR,,0.00,WeatherDisplay:10.37,2013-04-16 03:00:00,
2013-04-15 23:01:00,73.9,57.7,30.07,SE,141,3.4,3.4,57,0.00,CLR,,0.00,WeatherDisplay:10.37,2013-04-16 03:01:00,
2013-04-15 23:05:00,74.3,57.6,30.07,NNW,337,0.0,0.0,56,0.00,CLR,,0.00,WeatherDisplay:10.37,2013-04-16 03:05:00,
2013-04-15 23:10:00,74.1,57.9,30.07,ESE,110,3.4,3.4,57,0.00,CLR,,0.00,WeatherDisplay:10.37,2013-04-16 03:10:00,
2013-04-15 23:16:00,73.8,58.1,30.07,East,96,3.4,3.4,58,0.00,CLR,,0.00,WeatherDisplay:10.37,2013-04-16 03:16:00,
2013-04-15 23:21:00,73.8,58.5,30.07,ENE,74,3.4,3.4,59,0.00,CLR,,0.00,WeatherDisplay:10.37,2013-04-16 03:21:00,
2013-04-15 23:31:00,73.8,59.5,30.10,SSW,205,2.3,0.0,61,0.00,CLR,,0.00,WeatherDisplay:10.37,2013-04-16 03:31:00,
2013-04-15 23:36:00,73.8,59.5,30.10,SSW,205,2.3,0.0,61,0.00,CLR,,0.00,WeatherDisplay:10.37,2013-04-16 03:36:00,
2013-04-15 23:46:00,73.8,59.9,30.07,SSE,164,2.3,0.0,62,0.00,CLR,,0.00,WeatherDisplay:10.37,2013-04-16 03:46:00,
2013-04-15 23:51:00,73.6,59.8,30.07,SSE,164,0.0,0.0,62,0.00,CLR,,0.00,WeatherDisplay:10.37,2013-04-16 03:51:00,